EW9530 Weather Reports


Display with metric or nautical units.
time (UTC)temp
F
wind
direction
speed
MPH
gust
MPH
rain 1hr
in
rain 24hr
in
rain mn
in
humidity
%
barometer
mb
20260905144655 97 191 6.0 14.0 0.00 0.00 0.00 33 1020.9
20260905143144 97 180 7.0 14.0 0.00 0.00 0.00 33 1020.9
20260905141655 98 159 6.0 13.0 0.00 0.00 0.00 31 1020.9
20260905140153 98 223 8.0 18.0 0.00 0.00 0.00 31 1020.9
20260905134652 98 130 6.0 18.0 0.00 0.00 0.00 30 1021.0
20260905133142 98 182 7.0 19.0 0.00 0.00 0.00 31 1021.1
20260905131653 98 132 7.0 17.0 0.00 0.00 0.00 31 1021.1
20260905130157 98 207 7.0 17.0 0.00 0.00 0.00 30 1021.2
20260905124652 98 175 5.0 17.0 0.00 0.00 0.00 30 1021.3
20260905123143 98 144 5.0 17.0 0.00 0.00 0.00 30 1021.4
20260905121654 98 146 6.0 14.0 0.00 0.00 0.00 30 1021.6
20260905120202 97 130 4.0 15.0 0.00 0.00 0.00 30 1021.7
20260905114652 97 96 4.0 15.0 0.00 0.00 0.00 30 1021.9
20260905111652 96 183 7.0 12.0 0.00 0.00 0.00 32 1022.0
20260905110153 96 213 4.0 12.0 0.00 0.00 0.00 32 1022.0
20260905104653 96 178 6.0 12.0 0.00 0.00 0.00 32 1022.1
20260905103142 96 158 5.0 12.0 0.00 0.00 0.00 33 1022.0
20260905101653 92 184 5.0 10.0 0.00 0.00 0.00 40 1022.2
20260905100154 89 319 0.0 0.0 0.00 0.00 0.00 49 1022.3
20260905094653 87 346 0.0 2.0 0.00 0.00 0.00 52 1022.5
20260905093140 85 16 1.0 6.0 0.00 0.00 0.00 56 1022.6
20260905091502 84 49 0.0 5.0 0.00 0.00 0.00 60 1022.7
20260905090201 83 29 1.0 5.0 0.00 0.00 0.00 60 1022.7
20260905084652 81 40 0.0 4.0 0.00 0.00 0.00 64 1022.7
20260905083143 80 16 2.0 4.0 0.00 0.00 0.00 66 1022.7
20260905081652 79 10 1.0 4.0 0.00 0.00 0.00 68 1022.7
20260905080152 77 68 0.0 8.0 0.00 0.00 0.00 71 1022.8
20260905074655 76 21 2.0 7.0 0.00 0.00 0.00 74 1022.8
20260905073141 74 38 2.0 6.0 0.00 0.00 0.00 77 1022.7
20260905070154 72 26 0.0 4.0 0.00 0.00 0.00 82 1022.8
20260905064652 70 26 1.0 5.0 0.00 0.00 0.00 84 1022.7
20260905063142 69 45 1.0 4.0 0.00 0.00 0.00 86 1022.6
20260905061653 69 47 1.0 3.0 0.00 0.00 0.00 86 1022.5
20260905060153 68 47 0.0 1.0 0.00 0.00 0.00 86 1022.4
20260905054652 68 47 0.0 2.0 0.00 0.00 0.00 86 1022.3
20260905053144 68 47 0.0 1.0 0.00 0.00 0.00 86 1022.1
20260905051655 69 40 0.0 0.0 0.00 0.00 0.00 85 1022.0
20260905050159 69 40 0.0 3.0 0.00 0.00 0.00 86 1022.0
20260905044652 69 58 3.0 6.0 0.00 0.00 0.00 86 1021.9
20260905043144 69 43 4.0 7.0 0.00 0.00 0.00 86 1021.8
20260905041654 69 53 3.0 7.0 0.00 0.00 0.00 86 1021.6
20260905040156 70 24 2.0 6.0 0.00 0.00 0.00 85 1021.6
20260905034652 70 49 1.0 7.0 0.00 0.00 0.00 86 1021.5
20260905033144 70 56 4.0 6.0 0.00 0.00 0.00 85 1021.6
20260905031653 71 16 5.0 8.0 0.00 0.00 0.00 85 1021.4
20260905030153 71 38 1.0 5.0 0.00 0.00 0.00 85 1021.3
20260905024653 71 37 0.0 5.0 0.00 0.00 0.00 84 1021.3
20260905023144 71 29 0.0 3.0 0.00 0.00 0.00 84 1021.4
20260905021655 72 350 3.0 6.0 0.00 0.00 0.00 84 1021.3
20260905020158 72 17 1.0 6.0 0.00 0.00 0.00 83 1021.4
20260905014653 72 26 0.0 4.0 0.00 0.00 0.00 83 1021.3
20260905013141 72 43 2.0 6.0 0.00 0.00 0.00 83 1021.4
20260905011652 72 57 2.0 6.0 0.00 0.00 0.00 82 1021.4
20260905010153 73 46 4.0 6.0 0.00 0.00 0.00 82 1021.4
20260905004650 73 355 0.0 1.0 0.00 0.00 0.00 81 1021.4
20260905003141 73 38 0.0 3.0 0.00 0.00 0.00 81 1021.6
20260905000149 74 38 1.0 3.0 0.00 0.00 0.00 80 1021.5
20260904234652 74 38 0.0 2.0 0.00 0.00 0.00 79 1021.4
20260904233142 75 360 0.0 3.0 0.00 0.00 0.00 78 1021.4
20260904231652 75 360 0.0 4.0 0.00 0.00 0.00 78 1021.4
20260904230153 76 63 0.0 0.0 0.00 0.00 0.00 77 1021.4
20260904224650 76 58 2.0 4.0 0.00 0.00 0.00 77 1021.5
20260904223143 76 38 2.0 4.0 0.00 0.00 0.00 77 1021.4
20260904221652 77 38 1.0 4.0 0.00 0.00 0.00 76 1021.4
20260904220153 77 38 1.0 4.0 0.00 0.00 0.00 76 1021.3
20260904214652 78 38 2.0 3.0 0.00 0.00 0.00 75 1021.1
20260904213141 79 85 2.0 3.0 0.00 0.00 0.00 73 1021.2
20260904211653 80 159 0.0 2.0 0.00 0.00 0.00 71 1021.2
20260904210153 81 159 0.0 3.0 0.00 0.00 0.00 70 1021.1
20260904204652 82 159 0.0 1.0 0.00 0.00 0.00 69 1021.1
20260904203140 83 160 0.0 6.0 0.00 0.00 0.00 68 1021.1
20260904201651 83 149 2.0 8.0 0.00 0.00 0.00 67 1021.0
20260904200152 83 190 4.0 9.0 0.00 0.00 0.00 67 1020.8
20260904194652 84 177 5.0 7.0 0.00 0.00 0.00 66 1020.7
20260904193142 84 192 2.0 5.0 0.00 0.00 0.00 65 1020.7
20260904191650 85 127 4.0 8.0 0.00 0.00 0.00 64 1020.6
20260904190151 85 162 3.0 10.0 0.00 0.00 0.00 63 1020.3
20260904184650 86 169 2.0 10.0 0.00 0.00 0.00 63 1020.0
20260904183140 87 86 2.0 12.0 0.00 0.00 0.00 61 1019.7
20260904181652 87 145 4.0 10.0 0.00 0.00 0.00 58 1019.4
20260904180156 88 100 3.0 13.0 0.00 0.00 0.00 56 1019.2
20260904174653 89 159 6.0 15.0 0.00 0.00 0.00 54 1019.1
20260904173143 91 184 8.0 14.0 0.00 0.00 0.00 51 1018.8
20260904171650 92 180 5.0 13.0 0.00 0.00 0.00 50 1018.5
20260904170157 93 95 7.0 14.0 0.00 0.00 0.00 49 1018.4
20260904164654 93 155 7.0 14.0 0.00 0.00 0.00 49 1018.3
20260904163142 94 152 7.0 15.0 0.00 0.00 0.00 49 1018.2
20260904161652 95 138 6.0 16.0 0.00 0.00 0.00 49 1018.2
20260904160157 94 142 9.0 15.0 0.00 0.00 0.00 48 1018.2
20260904154653 96 119 8.0 16.0 0.00 0.00 0.00 48 1018.2
20260904153146 96 108 7.0 17.0 0.00 0.00 0.00 47 1018.1
20260904151653 97 173 7.0 15.0 0.00 0.00 0.00 45 1018.0
20260904150155 97 113 5.0 13.0 0.00 0.00 0.00 45 1018.0